Weather History for McCook, NE

Change the Weather History Date:

Monday, March 12, 2012

  Actual Average Record
Temperature  
Mean Temperature 55 °F 38 °F  
Max Temperature 77 °F 53 °F 85 °F (1933)
Min Temperature 33 °F 24 °F -1 °F (1956)
Degree Days  
Heating Degree Days 10    
Growing Degree Days 6 (Base 50)    
Moisture  
Dew Point 27 °F    
Average Humidity 43    
Maximum Humidity 92    
Minimum Humidity 12    
Precipitation  
Precipitation 0.00 in 0.04 in 1.29 in (1977)
Month to date precipitation 0.06 0.45  
Year to date precipitation 0.43 1.58  
Sea Level Pressure  
Sea Level Pressure 29.78 in    
Wind  
Wind Speed 11 mph (West)    
Max Wind Speed 22 mph    
Max Gust Speed 29 mph    
Visibility 10 miles    
Events      
T = Trace of Precipitation, MM = Missing Value Source: NWS Daily Summary

Daily Weather History Graph

Daily Weather History Graph

Search for Another Location

Airport:

Trip Planner

Search our weather history database for the weather conditions in past years. The results will help you decide how hot, cold, wet, or windy it might be!

Date:

Astronomy

Mar. 12, 2012 Rise Set
Actual Time 7:57 AM CDT 7:46 PM CDT
Civil Twilight 7:30 AM CDT 8:13 PM CDT
Nautical Twilight 6:59 AM CDT 8:45 PM CDT
Astronomical Twilight 6:27 AM CDT 9:17 PM CDT
Moon 12:12 AM CDT (3/12) 10:20 AM CDT (3/12)
Length of Visible Light 12h 42m
Length of Day
11h 48m
Waning Gibbous, 76% of the Moon is Illuminated
Mar 12
Waning Gibbous
Mar 14
Last Quarter
Mar 22
New
Mar 30
First Quarter
Apr 6
Full

Hourly Weather History & Observations

Time (CDT) Temp. Windchill Dew Point Humidity Pressure Visibility Wind Dir Wind Speed Gust Speed Precip Events Conditions
12:53 AM 42.1 °F 37.1 °F 37.9 °F 85% 29.65 in 10.0 mi South 8.1 mph - N/A   Overcast
1:53 AM 41.0 °F 35.2 °F 36.0 °F 82% 29.63 in 10.0 mi SSE 9.2 mph - N/A   Clear
2:53 AM 39.0 °F 34.0 °F 35.1 °F 86% 29.63 in 10.0 mi SSW 6.9 mph - N/A   Clear
3:53 AM 35.1 °F 31.0 °F 33.1 °F 92% 29.63 in 10.0 mi SW 4.6 mph - N/A   Clear
5:53 AM 34.0 °F 27.2 °F 30.0 °F 85% 29.68 in 10.0 mi WSW 8.1 mph - N/A   Clear
6:53 AM 34.0 °F 25.5 °F 28.9 °F 82% 29.70 in 10.0 mi WSW 11.5 mph - N/A   Clear
7:53 AM 39.9 °F 31.8 °F 28.0 °F 63% 29.71 in 10.0 mi West 15.0 mph - N/A   Clear
8:53 AM 37.9 °F 30.9 °F 28.9 °F 70% 29.76 in 10.0 mi WSW 10.4 mph - N/A   Clear
9:53 AM 48.2 °F - 30.2 °F 50% 29.76 in 10.0 mi WSW 13.8 mph - N/A   Clear
10:53 AM 57.9 °F - 32.0 °F 37% 29.79 in 10.0 mi West 18.4 mph 25.3 mph N/A   Clear
11:53 AM 68.0 °F - 30.0 °F 24% 29.81 in 10.0 mi West 20.7 mph 27.6 mph N/A   Clear
12:53 PM 72.0 °F - 27.0 °F 19% 29.81 in 10.0 mi NW 21.9 mph 28.8 mph N/A   Clear
1:53 PM 75.9 °F - 24.1 °F 15% 29.81 in 10.0 mi NW 20.7 mph 28.8 mph N/A   Clear
2:53 PM 77.0 °F - 21.9 °F 13% 29.81 in 10.0 mi NW 17.3 mph 24.2 mph N/A   Clear
3:53 PM 77.0 °F - 21.0 °F 12% 29.81 in 10.0 mi WNW 21.9 mph 27.6 mph N/A   Clear
4:53 PM 75.9 °F - 21.0 °F 13% 29.83 in 10.0 mi WNW 12.7 mph - N/A   Clear
5:53 PM 75.0 °F - 19.9 °F 13% 29.84 in 10.0 mi NW 20.7 mph 26.5 mph N/A   Clear
6:53 PM 72.0 °F - 19.9 °F 14% 29.87 in 10.0 mi WNW 9.2 mph - N/A   Clear
7:53 PM 68.0 °F - 19.9 °F 16% 29.87 in 10.0 mi WNW 3.5 mph - N/A   Clear
8:53 PM 57.9 °F - 21.9 °F 25% 29.90 in 10.0 mi Calm Calm - N/A   Clear
9:53 PM 52.0 °F - 21.9 °F 31% 29.91 in 10.0 mi North 3.5 mph - N/A   Clear
10:53 PM 48.9 °F - 23.0 °F 36% 29.91 in 10.0 mi WSW 4.6 mph - N/A   Clear
11:53 PM 48.0 °F - 21.0 °F 34% 29.91 in 10.0 mi South 4.6 mph - N/A   Clear